05-02-2022, 00:00:01,    226,    0.1,    0.5,   0.00,   0.00, 1015.8,   83.1, -999.0
05-02-2022, 00:00:11,    226,    0.0,    0.6,   0.00,   0.00, 1015.7,   83.1, -999.0
05-02-2022, 00:00:21,    226,    0.0,    0.5,   0.00,   0.00, 1015.7,   82.9, -999.0
05-02-2022, 00:00:31,    226,    0.0,    0.4,   0.00,   0.00, 1015.7,   82.9, -999.0
05-02-2022, 00:00:41,    228,    0.0,    0.5,   0.00,   0.00, 1015.7,   82.9, -999.0
05-02-2022, 00:00:51,    228,    0.0,    0.5,   0.00,   0.00, 1015.7,   82.8, -999.0
05-02-2022, 00:01:01,    228,    0.0,    0.5,   0.00,   0.00, 1015.7,   82.9, -999.0
05-02-2022, 00:01:11,    227,    0.0,    0.5,   0.00,   0.00, 1015.7,   82.8, -999.0
05-02-2022, 00:01:21,    227,    0.0,    0.5,   0.00,   0.00, 1015.7,   82.8, -999.0
05-02-2022, 00:01:31,    228,    0.0,    0.5,   0.00,   0.00, 1015.7,   82.8, -999.0
05-02-2022, 00:01:41,    228,    0.0,    0.5,   0.00,   0.00, 1015.7,   82.9, -999.0
05-02-2022, 00:01:51,    228,    0.0,    0.5,   0.00,   0.00, 1015.7,   82.8, -999.0
05-02-2022, 00:02:01,    228,    0.0,    0.5,   0.00,   0.00, 1015.7,   82.9, -999.0
05-02-2022, 00:02:11,    228,    0.0,    0.4,   0.00,   0.00, 1015.7,   82.9, -999.0
05-02-2022, 00:02:21,    228,    0.0,    0.5,   0.00,   0.00, 1015.7,   82.8, -999.0
05-02-2022, 00:02:31,    227,    0.0,    0.4,   0.00,   0.00, 1015.7,   82.9, -999.0
05-02-2022, 00:02:41,    228,    0.0,    0.5,   0.00,   0.00, 1015.7,   82.8, -999.0
05-02-2022, 00:02:50,    228,    0.0,    0.5,   0.00,   0.00, 1015.7,   82.8, -999.0
05-02-2022, 00:03:01,    228,    0.0,    0.5,   0.00,   0.00, 1015.7,   83.0, -999.0
05-02-2022, 00:03:10,    228,    0.0,    0.5,   0.00,   0.00, 1015.7,   83.0, -999.0
05-02-2022, 00:03:20,    229,    0.0,    0.5,   0.00,   0.00, 1015.8,   83.1, -999.0
05-02-2022, 00:03:31,    228,    0.1,    0.5,   0.00,   0.00, 1015.8,   83.3, -999.0
05-02-2022, 00:03:40,    229,    0.0,    0.5,   0.00,   0.00, 1015.7,   83.1, -999.0
05-02-2022, 00:03:50,    229,    0.1,    0.5,   0.00,   0.00, 1015.7,   83.0, -999.0
05-02-2022, 00:04:00,    290,    0.4,    0.6,   0.00,   0.00, 1015.8,   83.4, -999.0
05-02-2022, 00:04:10,    289,    0.3,    0.5,   0.00,   0.00, 1015.8,   83.3, -999.0
05-02-2022, 00:04:20,    272,    0.1,    0.4,   0.00,   0.00, 1015.8,   83.2, -999.0
05-02-2022, 00:04:30,    272,    0.2,    0.5,   0.00,   0.00, 1015.8,   83.3, -999.0
05-02-2022, 00:04:40,    270,    0.3,    0.5,   0.00,   0.00, 1015.7,   83.1, -999.0
05-02-2022, 00:04:50,    270,    0.7,    0.6,   0.00,   0.00, 1015.9,   83.5, -999.0
05-02-2022, 00:05:00,    270,    0.3,    0.5,   0.00,   0.00, 1015.8,   83.3, -999.0
05-02-2022, 00:05:10,    270,    0.1,    0.5,   0.00,   0.00, 1015.8,   83.1, -999.0
05-02-2022, 00:05:30,    269,    0.0,    0.4,   0.00,   0.00, 1015.7,   83.0, -999.0
05-02-2022, 00:05:40,    271,    0.0,    0.4,   0.00,   0.00, 1015.7,   83.0, -999.0
05-02-2022, 00:05:49,    269,    0.0,    0.4,   0.00,   0.00, 1015.7,   82.9, -999.0
05-02-2022, 00:06:00,    269,    0.0,    0.4,   0.00,   0.00, 1015.7,   83.0, -999.0
05-02-2022, 00:06:10,    270,    0.0,    0.4,   0.00,   0.00, 1015.7,   83.0, -999.0
05-02-2022, 00:06:19,    269,    0.0,    0.4,   0.00,   0.00, 1015.7,   83.0, -999.0
05-02-2022, 00:06:29,    269,    0.0,    0.4,   0.00,   0.00, 1015.7,   83.0, -999.0
05-02-2022, 00:06:40,    268,    0.0,    0.4,   0.00,   0.00, 1015.7,   83.0, -999.0
05-02-2022, 00:06:49,    269,    0.0,    0.5,   0.00,   0.00, 1015.7,   83.0, -999.0
05-02-2022, 00:06:59,    268,    0.1,    0.5,   0.00,   0.00, 1015.8,   83.1, -999.0
05-02-2022, 00:07:10,    268,    0.0,    0.5,   0.00,   0.00, 1015.7,   83.2, -999.0
05-02-2022, 00:07:19,    268,    0.0,    0.5,   0.00,   0.00, 1015.7,   83.2, -999.0
05-02-2022, 00:07:29,    268,    0.0,    0.5,   0.00,   0.00, 1015.7,   83.2, -999.0
05-02-2022, 00:07:39,    268,    0.0,    0.4,   0.00,   0.00, 1015.7,   83.3, -999.0
05-02-2022, 00:07:49,    268,    0.0,    0.5,   0.00,   0.00, 1015.7,   83.3, -999.0
05-02-2022, 00:07:59,    269,    0.1,    0.4,   0.00,   0.00, 1015.7,   83.4, -999.0
05-02-2022, 00:08:09,    266,    0.0,    0.4,   0.00,   0.00, 1015.7,   83.2, -999.0
05-02-2022, 00:08:19,    256,    0.5,    0.6,   0.00,   0.00, 1015.8,   83.6, -999.0
05-02-2022, 00:08:29,    276,    1.0,    0.6,   0.00,   0.00, 1015.9,   83.6, -999.0
05-02-2022, 00:08:39,    243,    1.0,    0.6,   0.00,   0.00, 1015.8,   83.6, -999.0
05-02-2022, 00:08:49,    243,    0.0,    0.5,   0.00,   0.00, 1015.7,   83.3, -999.0
05-02-2022, 00:08:59,    259,    0.6,    0.5,   0.00,   0.00, 1015.8,   83.6, -999.0
05-02-2022, 00:09:09,    295,    0.5,    0.5,   0.00,   0.00, 1015.8,   83.6, -999.0
05-02-2022, 00:09:19,    295,    0.1,    0.5,   0.00,   0.00, 1015.7,   83.2, -999.0
05-02-2022, 00:09:28,    225,    0.5,    0.4,   0.00,   0.00, 1015.8,   83.4, -999.0
05-02-2022, 00:09:39,    240,    0.8,    0.6,   0.00,   0.00, 1015.9,   83.8, -999.0
05-02-2022, 00:09:49,    240,    0.0,    0.5,   0.00,   0.00, 1015.7,   83.4, -999.0
05-02-2022, 00:09:58,    241,    0.0,    0.5,   0.00,   0.00, 1015.7,   83.3, -999.0
05-02-2022, 00:10:08,    257,    0.4,    0.6,   0.00,   0.00, 1015.8,   83.6, -999.0
05-02-2022, 00:10:18,    257,    0.7,    0.6,   0.00,   0.00, 1015.9,   83.7, -999.0
05-02-2022, 00:10:28,    251,    0.0,    0.5,   0.00,   0.00, 1015.7,   83.4, -999.0
05-02-2022, 00:10:38,    236,    0.3,    0.5,   0.00,   0.00, 1015.8,   83.6, -999.0
05-02-2022, 00:10:48,    245,    0.1,    0.6,   0.00,   0.00, 1015.8,   83.4, -999.0
05-02-2022, 00:10:58,    245,    0.0,    0.4,   0.00,   0.00, 1015.7,   83.3, -999.0
05-02-2022, 00:11:08,    251,    0.4,    0.5,   0.00,   0.00, 1015.8,   83.5, -999.0
05-02-2022, 00:11:18,    255,    1.0,    0.6,   0.00,   0.00, 1015.8,   83.6, -999.0
05-02-2022, 00:11:28,    281,    1.8,    0.5,   0.00,   0.00, 1015.8,   83.7, -999.0
05-02-2022, 00:11:38,    270,    2.7,    0.6,   0.00,   0.00, 1015.9,   83.7, -999.0
05-02-2022, 00:11:48,    234,    1.4,    0.6,   0.00,   0.00, 1015.9,   83.7, -999.0
05-02-2022, 00:11:58,    231,    0.1,    0.6,   0.00,   0.00, 1015.8,   83.5, -999.0
05-02-2022, 00:12:08,    245,    0.2,    0.6,   0.00,   0.00, 1015.7,   83.5, -999.0
05-02-2022, 00:12:18,    290,    0.9,    0.6,   0.00,   0.00, 1015.9,   83.6, -999.0
05-02-2022, 00:12:28,    248,    0.8,    0.6,   0.00,   0.00, 1015.9,   83.7, -999.0
05-02-2022, 00:12:38,    240,    0.8,    0.6,   0.00,   0.00, 1015.8,   83.8, -999.0
05-02-2022, 00:12:48,    239,    0.3,    0.5,   0.00,   0.00, 1015.8,   83.5, -999.0
05-02-2022, 00:12:58,    239,    0.0,    0.6,   0.00,   0.00, 1015.7,   83.5, -999.0
05-02-2022, 00:13:07,    241,    0.5,    0.5,   0.00,   0.00, 1015.8,   83.5, -999.0
05-02-2022, 00:13:18,    241,    0.6,    0.6,   0.00,   0.00, 1015.8,   83.6, -999.0
05-02-2022, 00:13:27,    266,    0.9,    0.5,   0.00,   0.00, 1015.9,   83.7, -999.0
05-02-2022, 00:13:37,    265,    0.9,    0.5,   0.00,   0.00, 1015.8,   83.6, -999.0
05-02-2022, 00:13:47,    267,    0.9,    0.6,   0.00,   0.00, 1015.9,   83.6, -999.0
05-02-2022, 00:13:57,    240,    1.4,    0.6,   0.00,   0.00, 1015.9,   83.6, -999.0
05-02-2022, 00:14:07,    241,    0.9,    0.6,   0.00,   0.00, 1015.9,   83.6, -999.0
05-02-2022, 00:14:17,    241,    0.6,    0.6,   0.00,   0.00, 1015.8,   83.6, -999.0
05-02-2022, 00:14:27,    249,    0.3,    0.5,   0.00,   0.00, 1015.8,   83.5, -999.0
05-02-2022, 00:14:37,    249,    0.2,    0.6,   0.00,   0.00, 1015.8,   83.5, -999.0
05-02-2022, 00:14:47,    249,    0.0,    0.5,   0.00,   0.00, 1015.7,   83.4, -999.0
05-02-2022, 00:14:57,    249,    0.0,    0.5,   0.00,   0.00, 1015.7,   83.3, -999.0
05-02-2022, 00:15:07,    251,    0.1,    0.5,   0.00,   0.00, 1015.7,   83.4, -999.0
05-02-2022, 00:15:17,    249,    0.1,    0.5,   0.00,   0.00, 1015.8,   83.5, -999.0
05-02-2022, 00:15:27,    250,    0.0,    0.5,   0.00,   0.00, 1015.7,   83.2, -999.0
05-02-2022, 00:15:37,    250,    0.0,    0.4,   0.00,   0.00, 1015.7,   83.4, -999.0
05-02-2022, 00:15:47,    239,    0.9,    0.7,   0.00,   0.00, 1015.9,   83.7, -999.0
05-02-2022, 00:15:57,    239,    0.3,    0.6,   0.00,   0.00, 1015.8,   83.6, -999.0
05-02-2022, 00:16:07,    239,    0.0,    0.5,   0.00,   0.00, 1015.7,   83.4, -999.0
05-02-2022, 00:16:16,    291,    0.8,    0.6,   0.00,   0.00, 1015.9,   83.7, -999.0
05-02-2022, 00:16:27,    290,    0.9,    0.6,   0.00,   0.00, 1015.8,   83.7, -999.0
05-02-2022, 00:16:37,    290,    0.0,    0.5,   0.00,   0.00, 1015.7,   83.4, -999.0
05-02-2022, 00:16:46,    274,    1.0,    0.5,   0.00,   0.00, 1015.8,   83.6, -999.0
05-02-2022, 00:16:56,    274,    0.1,    0.5,   0.00,   0.00, 1015.7,   83.4, -999.0
05-02-2022, 00:17:06,    250,    0.0,    0.5,   0.00,   0.00, 1015.8,   83.5, -999.0
05-02-2022, 00:17:16,    249,    0.0,    0.4,   0.00,   0.00, 1015.7,   83.5, -999.0
05-02-2022, 00:17:26,    262,    1.6,    0.6,   0.00,   0.00, 1015.8,   83.8, -999.0
05-02-2022, 00:17:36,    260,    0.7,    0.6,   0.00,   0.00, 1015.8,   83.7, -999.0
05-02-2022, 00:17:46,    260,    0.0,    0.5,   0.00,   0.00, 1015.8,   83.5, -999.0
05-02-2022, 00:17:56,    260,    0.0,    0.5,   0.00,   0.00, 1015.7,   83.4, -999.0
05-02-2022, 00:18:06,    258,    0.0,    0.6,   0.00,   0.00, 1015.8,   83.6, -999.0
05-02-2022, 00:18:16,    218,    0.7,    0.5,   0.00,   0.00, 1015.8,   83.7, -999.0
05-02-2022, 00:18:26,    218,    0.3,    0.6,   0.00,   0.00, 1015.8,   83.6, -999.0
05-02-2022, 00:18:36,    221,    0.0,    0.5,   0.00,   0.00, 1015.7,   83.6, -999.0
05-02-2022, 00:18:46,    222,    0.0,    0.5,   0.00,   0.00, 1015.7,   83.4, -999.0
05-02-2022, 00:18:56,    223,    0.0,    0.5,   0.00,   0.00, 1015.7,   83.6, -999.0
05-02-2022, 00:19:06,    223,    0.5,    0.6,   0.00,   0.00, 1015.8,   83.8, -999.0
05-02-2022, 00:19:16,    223,    0.0,    0.6,   0.00,   0.00, 1015.7,   83.5, -999.0
05-02-2022, 00:19:25,    224,    0.0,    0.5,   0.00,   0.00, 1015.7,   83.4, -999.0
05-02-2022, 00:19:36,    248,    1.7,    0.5,   0.00,   0.00, 1015.8,   83.8, -999.0
05-02-2022, 00:19:46,    248,    1.8,    0.6,   0.00,   0.00, 1015.8,   83.8, -999.0
05-02-2022, 00:19:55,    235,    1.1,    0.6,   0.00,   0.00, 1015.8,   83.7, -999.0
05-02-2022, 00:20:06,    249,    2.8,    0.6,   0.00,   0.00, 1015.8,   83.8, -999.0
05-02-2022, 00:20:15,    256,    1.9,    0.6,   0.00,   0.00, 1015.8,   83.8, -999.0
05-02-2022, 00:20:25,    240,    2.4,    0.6,   0.00,   0.00, 1015.8,   83.9, -999.0
05-02-2022, 00:20:35,    256,    0.5,    0.6,   0.00,   0.00, 1015.8,   83.8, -999.0
05-02-2022, 00:20:45,    259,    0.1,    0.5,   0.00,   0.00, 1015.7,   83.6, -999.0
05-02-2022, 00:20:55,    262,    1.1,    0.7,   0.00,   0.00, 1015.9,   83.8, -999.0
05-02-2022, 00:21:05,    226,    1.4,    0.6,   0.00,   0.00, 1015.9,   83.9, -999.0
05-02-2022, 00:21:15,    236,    0.9,    0.6,   0.00,   0.00, 1015.8,   83.8, -999.0
05-02-2022, 00:21:25,    243,    0.7,    0.6,   0.00,   0.00, 1015.8,   83.8, -999.0
05-02-2022, 00:21:35,    239,    0.3,    0.5,   0.00,   0.00, 1015.7,   83.6, -999.0
05-02-2022, 00:21:45,    242,    0.0,    0.5,   0.00,   0.00, 1015.7,   83.5, -999.0
05-02-2022, 00:21:55,    242,    0.0,    0.6,   0.00,   0.00, 1015.7,   83.5, -999.0
05-02-2022, 00:22:05,    242,    0.0,    0.5,   0.00,   0.00, 1015.7,   83.6, -999.0
05-02-2022, 00:22:15,    243,    0.2,    0.6,   0.00,   0.00, 1015.8,   83.6, -999.0
05-02-2022, 00:22:25,    291,    0.2,    0.6,   0.00,   0.00, 1015.8,   83.7, -999.0
05-02-2022, 00:22:35,    276,    0.9,    0.7,   0.00,   0.00, 1015.8,   83.8, -999.0
05-02-2022, 00:22:45,    275,    0.1,    0.6,   0.00,   0.00, 1015.8,   83.8, -999.0
05-02-2022, 00:22:55,    274,    0.0,    0.5,   0.00,   0.00, 1015.7,   83.6, -999.0
05-02-2022, 00:23:04,    274,    0.0,    0.5,   0.00,   0.00, 1015.7,   83.5, -999.0
05-02-2022, 00:23:15,    274,    0.0,    0.5,   0.00,   0.00, 1015.7,   83.4, -999.0
05-02-2022, 00:23:24,    272,    0.2,    0.5,   0.00,   0.00, 1015.8,   83.7, -999.0
05-02-2022, 00:23:34,    272,    0.0,    0.5,   0.00,   0.00, 1015.7,   83.5, -999.0
05-02-2022, 00:23:44,    271,    0.0,    0.5,   0.00,   0.00, 1015.7,   83.5, -999.0
05-02-2022, 00:23:54,    257,    0.1,    0.5,   0.00,   0.00, 1015.7,   83.7, -999.0
05-02-2022, 00:24:04,    251,    1.4,    0.6,   0.00,   0.00, 1015.8,   84.0, -999.0
05-02-2022, 00:24:14,    263,    1.0,    0.7,   0.00,   0.00, 1015.8,   83.9, -999.0
05-02-2022, 00:24:24,    263,    0.7,    0.6,   0.00,   0.00, 1015.8,   83.9, -999.0
05-02-2022, 00:24:34,    263,    1.0,    0.6,   0.00,   0.00, 1015.8,   83.9, -999.0
05-02-2022, 00:24:44,    263,    0.4,    0.6,   0.00,   0.00, 1015.8,   83.9, -999.0
05-02-2022, 00:24:54,    253,    0.3,    0.6,   0.00,   0.00, 1015.8,   83.9, -999.0
05-02-2022, 00:25:04,    253,    0.0,    0.5,   0.00,   0.00, 1015.8,   83.6, -999.0
05-02-2022, 00:25:14,    253,    0.0,    0.4,   0.00,   0.00, 1015.7,   83.6, -999.0
05-02-2022, 00:25:24,    254,    0.2,    0.5,   0.00,   0.00, 1015.7,   83.6, -999.0
05-02-2022, 00:25:34,    235,    0.9,    0.6,   0.00,   0.00, 1015.8,   83.7, -999.0
05-02-2022, 00:25:44,    248,    1.1,    0.6,   0.00,   0.00, 1015.8,   83.9, -999.0
05-02-2022, 00:25:54,    255,    1.1,    0.6,   0.00,   0.00, 1015.9,   83.8, -999.0
05-02-2022, 00:26:04,    264,    2.5,    0.5,   0.00,   0.00, 1015.8,   83.9, -999.0
05-02-2022, 00:26:13,    267,    0.8,    0.5,   0.00,   0.00, 1015.8,   83.8, -999.0
05-02-2022, 00:26:24,    230,    1.7,    0.6,   0.00,   0.00, 1015.8,   83.8, -999.0
05-02-2022, 00:26:33,    234,    0.2,    0.6,   0.00,   0.00, 1015.8,   83.7, -999.0
05-02-2022, 00:26:43,    234,    0.0,    0.4,   0.00,   0.00, 1015.7,   83.7, -999.0
05-02-2022, 00:26:54,    236,    0.4,    0.5,   0.00,   0.00, 1015.8,   83.9, -999.0
05-02-2022, 00:27:03,    236,    0.1,    0.5,   0.00,   0.00, 1015.7,   83.7, -999.0
05-02-2022, 00:27:13,    247,    1.6,    0.6,   0.00,   0.00, 1015.8,   83.9, -999.0
05-02-2022, 00:27:23,    250,    1.3,    0.6,   0.00,   0.00, 1015.8,   84.0, -999.0
05-02-2022, 00:27:33,    250,    0.2,    0.6,   0.00,   0.00, 1015.7,   83.8, -999.0
05-02-2022, 00:27:43,    251,    0.0,    0.5,   0.00,   0.00, 1015.7,   83.5, -999.0
05-02-2022, 00:27:53,    250,    0.0,    0.4,   0.00,   0.00, 1015.7,   83.6, -999.0
05-02-2022, 00:28:03,    235,    0.2,    0.6,   0.00,   0.00, 1015.8,   84.0, -999.0
05-02-2022, 00:28:13,    235,    0.4,    0.6,   0.00,   0.00, 1015.8,   83.8, -999.0
05-02-2022, 00:28:23,    235,    0.0,    0.4,   0.00,   0.00, 1015.7,   83.6, -999.0
05-02-2022, 00:28:33,    235,    0.0,    0.5,   0.00,   0.00, 1015.7,   83.6, -999.0
05-02-2022, 00:28:43,    279,    2.2,    0.5,   0.00,   0.00, 1015.9,   84.0, -999.0
05-02-2022, 00:28:53,    265,    2.5,    0.5,   0.00,   0.00, 1015.8,   84.0, -999.0
05-02-2022, 00:29:03,    251,    2.2,    0.5,   0.00,   0.00, 1015.8,   83.9, -999.0
05-02-2022, 00:29:13,    251,    0.4,    0.5,   0.00,   0.00, 1015.8,   83.9, -999.0
05-02-2022, 00:29:23,    251,    0.0,    0.5,   0.00,   0.00, 1015.7,   83.7, -999.0
05-02-2022, 00:29:33,    251,    0.0,    0.5,   0.00,   0.00, 1015.7,   83.7, -999.0
05-02-2022, 00:29:42,    245,    0.5,    0.5,   0.00,   0.00, 1015.8,   83.9, -999.0
05-02-2022, 00:29:52,    245,    0.0,    0.4,   0.00,   0.00, 1015.7,   83.7, -999.0
05-02-2022, 00:30:03,    245,    1.6,    0.5,   0.00,   0.00, 1015.8,   84.0, -999.0
05-02-2022, 00:30:12,    255,    1.1,    0.6,   0.00,   0.00, 1015.8,   84.0, -999.0
05-02-2022, 00:30:22,    253,    0.6,    0.5,   0.00,   0.00, 1015.8,   84.1, -999.0
05-02-2022, 00:30:32,    262,    1.1,    0.6,   0.00,   0.00, 1015.8,   84.2, -999.0
05-02-2022, 00:30:42,    250,    0.5,    0.5,   0.00,   0.00, 1015.8,   84.1, -999.0
05-02-2022, 00:30:52,    266,    2.3,    0.6,   0.00,   0.00, 1015.8,   84.2, -999.0
05-02-2022, 00:31:02,    247,    1.4,    0.6,   0.00,   0.00, 1015.8,   84.1, -999.0
05-02-2022, 00:31:12,    201,    0.5,    0.6,   0.00,   0.00, 1015.8,   84.1, -999.0
05-02-2022, 00:31:22,    201,    0.1,    0.5,   0.00,   0.00, 1015.8,   83.8, -999.0
05-02-2022, 00:31:32,    201,    0.0,    0.5,   0.00,   0.00, 1015.7,   83.7, -999.0
05-02-2022, 00:31:42,    201,    0.0,    0.4,   0.00,   0.00, 1015.7,   83.7, -999.0
05-02-2022, 00:31:52,    201,    0.0,    0.4,   0.00,   0.00, 1015.7,   83.7, -999.0
05-02-2022, 00:32:02,    244,    0.0,    0.4,   0.00,   0.00, 1015.7,   83.7, -999.0
05-02-2022, 00:32:12,    275,    0.7,    0.5,   0.00,   0.00, 1015.9,   84.1, -999.0
05-02-2022, 00:32:22,    273,    1.2,    0.5,   0.00,   0.00, 1015.9,   84.2, -999.0
05-02-2022, 00:32:32,    213,    0.5,    0.5,   0.00,   0.00, 1015.8,   84.0, -999.0
05-02-2022, 00:32:42,    209,    0.3,    0.4,   0.00,   0.00, 1015.8,   84.0, -999.0
05-02-2022, 00:32:52,    263,    1.6,    0.5,   0.00,   0.00, 1015.9,   84.1, -999.0
05-02-2022, 00:33:01,    259,    2.4,    0.6,   0.00,   0.00, 1015.9,   84.2, -999.0
05-02-2022, 00:33:12,    247,    1.2,    0.6,   0.00,   0.00, 1015.9,   84.2, -999.0
05-02-2022, 00:33:21,    257,    3.1,    0.5,   0.00,   0.00, 1015.9,   84.1, -999.0
05-02-2022, 00:33:31,    275,    1.7,    0.5,   0.00,   0.00, 1015.9,   84.1, -999.0
05-02-2022, 00:33:42,    241,    0.3,    0.6,   0.00,   0.00, 1015.9,   84.0, -999.0
05-02-2022, 00:33:51,    241,    0.0,    0.4,   0.00,   0.00, 1015.8,   83.8, -999.0
05-02-2022, 00:34:01,    242,    0.4,    0.4,   0.00,   0.00, 1015.9,   84.0, -999.0
05-02-2022, 00:34:11,    270,    1.2,    0.4,   0.00,   0.00, 1015.9,   84.1, -999.0
05-02-2022, 00:34:21,    199,    1.1,    0.5,   0.00,   0.00, 1016.0,   84.2, -999.0
05-02-2022, 00:34:31,    243,    0.0,    0.4,   0.00,   0.00, 1015.9,   84.0, -999.0
05-02-2022, 00:34:41,    243,    0.0,    0.4,   0.00,   0.00, 1015.8,   83.8, -999.0
05-02-2022, 00:34:51,    243,    0.0,    0.5,   0.00,   0.00, 1015.8,   83.8, -999.0
05-02-2022, 00:35:01,    243,    0.0,    0.4,   0.00,   0.00, 1015.8,   83.8, -999.0
05-02-2022, 00:35:11,    244,    0.0,    0.4,   0.00,   0.00, 1015.8,   83.8, -999.0
05-02-2022, 00:35:21,    244,    0.3,    0.5,   0.00,   0.00, 1016.0,   84.1, -999.0
05-02-2022, 00:35:31,    205,    0.1,    0.5,   0.00,   0.00, 1015.9,   83.9, -999.0
05-02-2022, 00:35:41,    203,    0.3,    0.4,   0.00,   0.00, 1015.9,   84.0, -999.0
05-02-2022, 00:35:51,    203,    0.0,    0.5,   0.00,   0.00, 1015.8,   83.8, -999.0
05-02-2022, 00:36:01,    202,    0.0,    0.4,   0.00,   0.00, 1015.8,   83.8, -999.0
05-02-2022, 00:36:11,    203,    0.0,    0.4,   0.00,   0.00, 1015.9,   83.9, -999.0
05-02-2022, 00:36:21,    202,    0.0,    0.4,   0.00,   0.00, 1015.8,   83.9, -999.0
05-02-2022, 00:36:31,    231,    0.4,    0.5,   0.00,   0.00, 1015.9,   84.1, -999.0
05-02-2022, 00:36:40,    211,    0.8,    0.6,   0.00,   0.00, 1016.0,   84.3, -999.0
05-02-2022, 00:36:51,    222,    1.1,    0.5,   0.00,   0.00, 1016.0,   84.2, -999.0
05-02-2022, 00:37:00,    245,    1.1,    0.5,   0.00,   0.00, 1016.0,   84.2, -999.0
05-02-2022, 00:37:10,    237,    0.4,    0.5,   0.00,   0.00, 1015.9,   84.2, -999.0
05-02-2022, 00:37:20,    237,    0.0,    0.4,   0.00,   0.00, 1015.8,   83.9, -999.0
05-02-2022, 00:37:30,    234,    0.0,    0.4,   0.00,   0.00, 1015.8,   83.8, -999.0
05-02-2022, 00:37:40,    233,    0.0,    0.4,   0.00,   0.00, 1015.8,   83.8, -999.0
05-02-2022, 00:37:50,    231,    0.0,    0.4,   0.00,   0.00, 1015.9,   83.9, -999.0
05-02-2022, 00:38:00,    200,    0.0,    0.4,   0.00,   0.00, 1015.9,   83.9, -999.0
05-02-2022, 00:38:10,    200,    0.0,    0.5,   0.00,   0.00, 1015.9,   83.9, -999.0
05-02-2022, 00:38:20,    200,    0.0,    0.4,   0.00,   0.00, 1015.8,   84.0, -999.0
05-02-2022, 00:38:30,    200,    0.0,    0.4,   0.00,   0.00, 1015.8,   83.8, -999.0
05-02-2022, 00:38:40,    201,    0.0,    0.4,   0.00,   0.00, 1015.9,   83.9, -999.0
05-02-2022, 00:38:50,    223,    0.0,    0.4,   0.00,   0.00, 1015.9,   83.9, -999.0
05-02-2022, 00:39:00,    227,    1.0,    0.4,   0.00,   0.00, 1016.0,   84.2, -999.0
05-02-2022, 00:39:10,    228,    0.4,    0.4,   0.00,   0.00, 1016.0,   84.2, -999.0
05-02-2022, 00:39:20,    228,    0.0,    0.5,   0.00,   0.00, 1015.9,   83.9, -999.0
05-02-2022, 00:39:30,    228,    0.0,    0.4,   0.00,   0.00, 1015.8,   83.9, -999.0
05-02-2022, 00:39:40,    228,    0.1,    0.4,   0.00,   0.00, 1016.0,   84.1, -999.0
05-02-2022, 00:39:49,    228,    0.0,    0.5,   0.00,   0.00, 1015.9,   83.8, -999.0
05-02-2022, 00:40:00,    226,    0.0,    0.3,   0.00,   0.00, 1015.9,   84.0, -999.0
05-02-2022, 00:40:09,    224,    0.3,    0.3,   0.00,   0.00, 1015.9,   84.0, -999.0
05-02-2022, 00:40:19,    224,    0.0,    0.4,   0.00,   0.00, 1015.8,   83.8, -999.0
05-02-2022, 00:40:29,    208,    0.7,    0.4,   0.00,   0.00, 1016.0,   84.1, -999.0
05-02-2022, 00:40:39,    206,    0.7,    0.5,   0.00,   0.00, 1016.0,   84.2, -999.0
05-02-2022, 00:40:49,    206,    0.0,    0.4,   0.00,   0.00, 1015.9,   83.9, -999.0
05-02-2022, 00:40:59,    206,    0.0,    0.4,   0.00,   0.00, 1015.9,   83.9, -999.0
05-02-2022, 00:41:09,    206,    0.0,    0.4,   0.00,   0.00, 1015.9,   84.0, -999.0
05-02-2022, 00:41:19,    206,    0.0,    0.5,   0.00,   0.00, 1015.9,   83.9, -999.0
05-02-2022, 00:41:29,    206,    0.0,    0.4,   0.00,   0.00, 1015.9,   83.9, -999.0
05-02-2022, 00:41:39,    216,    0.2,    0.4,   0.00,   0.00, 1016.0,   84.1, -999.0
05-02-2022, 00:41:49,    216,    0.5,    0.4,   0.00,   0.00, 1016.0,   84.3, -999.0
05-02-2022, 00:41:59,    243,    0.1,    0.4,   0.00,   0.00, 1016.0,   84.2, -999.0
05-02-2022, 00:42:09,    208,    0.0,    0.4,   0.00,   0.00, 1015.9,   84.0, -999.0
05-02-2022, 00:42:19,    209,    0.2,    0.5,   0.00,   0.00, 1016.0,   84.2, -999.0
05-02-2022, 00:42:29,    205,    0.3,    0.4,   0.00,   0.00, 1016.0,   84.2, -999.0
05-02-2022, 00:42:39,    204,    0.2,    0.5,   0.00,   0.00, 1016.0,   84.3, -999.0
05-02-2022, 00:42:49,    205,    0.0,    0.2,   0.00,   0.00, 1015.9,   84.1, -999.0
05-02-2022, 00:42:59,    228,    0.6,    0.4,   0.00,   0.00, 1016.0,   84.3, -999.0
05-02-2022, 00:43:09,    228,    0.2,    0.5,   0.00,   0.00, 1016.0,   84.4, -999.0
05-02-2022, 00:43:18,    228,    0.0,    0.4,   0.00,   0.00, 1015.9,   84.1, -999.0
05-02-2022, 00:43:28,    243,    0.2,    0.5,   0.00,   0.00, 1016.0,   84.2, -999.0
05-02-2022, 00:43:39,    232,    0.0,    0.4,   0.00,   0.00, 1015.9,   83.9, -999.0
05-02-2022, 00:43:48,    229,    0.1,    0.4,   0.00,   0.00, 1016.0,   84.1, -999.0
05-02-2022, 00:43:58,    232,    0.0,    0.4,   0.00,   0.00, 1016.0,   84.1, -999.0
05-02-2022, 00:44:08,    232,    0.0,    0.3,   0.00,   0.00, 1015.9,   84.1, -999.0
05-02-2022, 00:44:18,    232,    0.0,    0.4,   0.00,   0.00, 1015.9,   84.0, -999.0
05-02-2022, 00:44:28,    232,    0.0,    0.4,   0.00,   0.00, 1015.9,   83.9, -999.0
05-02-2022, 00:44:38,    233,    0.0,    0.4,   0.00,   0.00, 1015.9,   83.8, -999.0
05-02-2022, 00:44:48,    232,    0.1,    0.4,   0.00,   0.00, 1016.0,   84.1, -999.0
05-02-2022, 00:44:58,    232,    0.0,    0.4,   0.00,   0.00, 1016.0,   84.0, -999.0
05-02-2022, 00:45:08,    231,    0.1,    0.4,   0.00,   0.00, 1016.0,   84.2, -999.0
05-02-2022, 00:45:18,    236,    0.0,    0.4,   0.00,   0.00, 1016.0,   84.1, -999.0
05-02-2022, 00:45:28,    247,    0.5,    0.4,   0.00,   0.00, 1016.0,   84.3, -999.0
05-02-2022, 00:45:38,    253,    0.1,    0.4,   0.00,   0.00, 1016.0,   84.3, -999.0
05-02-2022, 00:45:48,    230,    0.2,    0.3,   0.00,   0.00, 1016.0,   84.3, -999.0
05-02-2022, 00:45:58,    230,    0.0,    0.4,   0.00,   0.00, 1016.0,   84.2, -999.0
05-02-2022, 00:46:08,    229,    0.1,    0.4,   0.00,   0.00, 1016.0,   84.2, -999.0
05-02-2022, 00:46:18,    230,    0.0,    0.4,   0.00,   0.00, 1015.9,   84.1, -999.0
05-02-2022, 00:46:28,    229,    0.0,    0.4,   0.00,   0.00, 1015.9,   84.0, -999.0
05-02-2022, 00:46:37,    229,    0.0,    0.4,   0.00,   0.00, 1015.9,   84.1, -999.0
05-02-2022, 00:46:48,    230,    0.0,    0.3,   0.00,   0.00, 1015.9,   84.1, -999.0